Tracking 30743 objects as of 22-Jun-2025
HD Live streaming from Space Station
objects crossing your sky now

COSMOS 1275 DEB

Track COSMOS 1275 DEB now!
10-day predictions


NORAD ID: 42145
Int'l Code: 1981-053RH
Perigee: 615.3 km
Apogee: 633.7 km
Inclination: 83.4 °
Period: 97.0 minutes
Semi major axis: 6995 km
RCS: Unknown
Launch date: June 4, 1981
Source: Commonwealth of Independent States (former USSR) (CIS)
Launch site: PLESETSK MISSILE AND SPACE COMPLEX (PKMTR)

Note: This is SATELLITE DEBRIS
Your satellite tracking list
Your tracking list is empty




NASA's NSSDC Master Catalog

Two Line Element Set (TLE):
1 42145U 81053RH  25170.97111512  .00017991  00000-0  21622-2 0  9997
2 42145  83.3574  58.3888 0013138 130.1718 230.0652 14.83805186609811
Source of the keplerian elements: AFSPC